Project,Study,Ord_Occ,Event_Num,Cast_ID,Date_Time_UTC,Date_Time_PST,Lat_Dec,Lon_Dec,Sta_ID,Line,Sta,Depth,Pressure,PrQ,Temp1,Temp1Q,Temp2,Temp2Q,TempAve,Salt1,Salt1Q,Salt1_Corr,Salt2,Salt2Q,Salt2_Corr,SaltAve_Corr,Ox1,Ox1Q,Ox1_CruiseCorr,Ox1_StaCorr,Ox2,Ox2Q,Ox2_CruiseCorr,Ox2_StaCorr,OxAve_StaCorr,Ox1uM,Ox1uM_CruiseCorr,Ox1uM_StaCorr,Ox2uM,Ox2uM_CruiseCorr,Ox2uM_StaCorr,OxAveuM_StaCorr,FluorV,FluorQ,EstChl_CruiseCorr,EstChl_StaCorr,ISUSV,ISUSQ,EstNO3_CruiseCorr,EstNO3_StaCorr,SigThetaTS1,SigThetaTS1Q,SigThetaTS2,SigThetaTS2Q,BAT,XMiss,TransQ,pH,pHQ,SPAR,SPARQ,PAR,PARQ,PoT1,PoT2,DynHt,SVA,OxSat1,OxSat2,BTL_Depth,BTL_Temp,SaltB,OxB,OxBuM,Chl-a,Phaeo,NO3,NO2,NH4,PO4,SIL
CalCOFI,2007SR,027,28,2007_027u,18-Jul-2020 20:21:13,18-Jul-2020 12:21:13,33.18566,-118.38619,090.0 037.0,090.0,037.0,514.000,518.306,,6.3110,,6.3114,,6.3112,34.3067,,34.3069,34.3082,,34.3098,34.3084,0.3301,,0.3272,0.3786,2.0729,,1.0074,0.8545,0.6166,14.357,14.4992,15.9957,90.146,,37.8258,26.9108,0.0314,,,,-99.0,,-99.0,-99.0,26.9709,,26.9720,,0.6346,85.3309,,7.524,,2.2580E+03,,5.7702E-02,,6.2646,6.2650,0.8394,,4.791,30.084,514,6.311,34.3101,0.369,16.11,,,38.78,0.00,0.00,3.11,74.89
CalCOFI,2007SR,027,28,2007_027u,18-Jul-2020 20:21:35,18-Jul-2020 12:21:35,33.18566,-118.38620,090.0 037.0,090.0,037.0,513.000,517.297,,6.3090,,6.3095,,6.3093,34.3068,,34.3070,34.3081,,34.3097,34.3084,0.3303,,0.3274,0.3788,2.0436,,0.9375,0.7690,0.5739,14.364,14.5065,16.0030,88.872,,34.1958,25.0994,0.0322,,,,-99.0,,-99.0,-99.0,26.9712,,26.9722,,0.6339,85.3445,,7.523,,2.2644E+03,,4.3480E-02,,6.2627,6.2632,0.8400,,4.793,29.658,,,,,,,,,,,,
CalCOFI,2007SR,027,28,2007_027u,18-Jul-2020 20:21:35,18-Jul-2020 12:21:35,33.18566,-118.38620,090.0 037.0,090.0,037.0,512.000,516.287,,6.3100,,6.3099,,6.3100,34.3065,,34.3067,34.3079,,34.3095,34.3081,0.3305,,0.3276,0.3791,2.0414,,0.9322,0.7626,0.5709,14.374,14.5169,16.0134,88.774,,33.9166,24.9650,0.0319,,,,-99.0,,-99.0,-99.0,26.9709,,26.9720,,0.6342,85.3390,,7.523,,2.2643E+03,,4.8907E-02,,6.2637,6.2636,0.8400,,4.797,29.625,,,,,,,,,,,,
CalCOFI,2007SR,027,28,2007_027u,18-Jul-2020 20:21:36,18-Jul-2020 12:21:36,33.18566,-118.38620,090.0 037.0,090.0,037.0,511.000,515.277,,6.3119,,6.3120,,6.3120,34.3060,,34.3062,34.3073,,34.3089,34.3076,0.3365,,0.3339,0.3853,2.0402,,0.9294,0.7591,0.5722,14.631,14.7852,16.2804,88.723,,33.7712,25.0258,0.0319,,,,-99.0,,-99.0,-99.0,26.9702,,26.9713,,0.6340,85.3435,,7.523,,2.2543E+03,,4.7273E-02,,6.2657,6.2659,0.8400,,4.883,29.609,,,,,,,,,,,,
CalCOFI,2007SR,027,28,2007_027u,18-Jul-2020 20:21:38,18-Jul-2020 12:21:38,33.18566,-118.38620,090.0 037.0,090.0,037.0,510.000,514.268,,6.3117,,6.3120,,6.3119,34.3050,,34.3052,34.3063,,34.3079,34.3066,0.3373,,0.3347,0.3861,2.0426,,0.9351,0.7661,0.5761,14.666,14.8217,16.3168,88.826,,34.0647,25.1908,0.0317,,,,-99.0,,-99.0,-99.0,26.9694,,26.9704,,0.6336,85.3522,,7.523,,2.2501E+03,,4.1553E-02,,6.2657,6.2660,0.8400,,4.894,29.644,,,,,,,,,,,,
CalCOFI,2007SR,027,28,2007_027u,18-Jul-2020 20:21:39,18-Jul-2020 12:21:39,33.18566,-118.38620,090.0 037.0,090.0,037.0,509.000,513.258,,6.3150,,6.3151,,6.3151,34.3043,,34.3045,34.3057,,34.3073,34.3059,0.3406,,0.3382,0.3896,2.0359,,0.9191,0.7465,0.5681,14.813,14.9752,16.4695,88.537,,33.2413,24.8554,0.0316,,,,-99.0,,-99.0,-99.0,26.9684,,26.9696,,0.6340,85.3430,,7.523,,2.2529E+03,,3.9481E-02,,6.2690,6.2691,0.8400,,4.944,29.549,,,,,,,,,,,,
CalCOFI,2007SR,027,28,2007_027u,18-Jul-2020 20:21:40,18-Jul-2020 12:21:40,33.18566,-118.38620,090.0 037.0,090.0,037.0,508.000,512.248,,6.3243,,6.3246,,6.3245,34.3037,,34.3039,34.3051,,34.3067,34.3053,0.3400,,0.3376,0.3890,2.0300,,0.9050,0.7293,0.5592,14.786,14.9470,16.4415,88.281,,32.5119,24.4767,0.0316,,,,-99.0,,-99.0,-99.0,26.9667,,26.9679,,0.6334,85.3551,,7.523,,2.2542E+03,,4.1207E-02,,6.2784,6.2787,0.8400,,4.936,29.470,,,,,,,,,,,,
CalCOFI,2007SR,027,28,2007_027u,18-Jul-2020 20:21:41,18-Jul-2020 12:21:41,33.18566,-118.38620,090.0 037.0,090.0,037.0,507.000,511.239,,6.3318,,6.3322,,6.3320,34.3033,,34.3035,34.3047,,34.3063,34.3049,0.3388,,0.3363,0.3877,2.0344,,0.9155,0.7421,0.5649,14.733,14.8917,16.3864,88.471,,33.0532,24.7198,0.0315,,,,-99.0,,-99.0,-99.0,26.9655,,26.9665,,0.6339,85.3457,,7.523,,2.2573E+03,,3.1603E-02,,6.2860,6.2863,0.8400,,4.919,29.539,,,,,,,,,,,,
CalCOFI,2007SR,027,28,2007_027u,18-Jul-2020 20:21:42,18-Jul-2020 12:21:42,33.18566,-118.38620,090.0 037.0,090.0,037.0,506.000,510.229,,6.3364,,6.3370,,6.3367,34.3031,,34.3033,34.3044,,34.3060,34.3047,0.3460,,0.3438,0.3952,2.0297,,0.9043,0.7284,0.5618,15.048,15.2205,16.7137,88.268,,32.4748,24.5943,0.0313,,,,-99.0,,-99.0,-99.0,26.9647,,26.9657,,0.6331,85.3611,,7.524,,2.2512E+03,,3.5872E-02,,6.2907,6.2913,0.8400,,5.025,29.474,,,,,,,,,,,,
CalCOFI,2007SR,027,28,2007_027u,18-Jul-2020 20:21:43,18-Jul-2020 12:21:43,33.18566,-118.38620,090.0 037.0,090.0,037.0,505.000,509.220,,6.3395,,6.3398,,6.3397,34.3028,,34.3030,34.3041,,34.3057,34.3044,0.3417,,0.3393,0.3907,2.0267,,0.8971,0.7196,0.5552,14.861,15.0253,16.5194,88.134,,32.0930,24.3062,0.0311,,,,-99.0,,-99.0,-99.0,26.9640,,26.9650,,0.6350,85.3204,,7.523,,2.2607E+03,,2.6956E-02,,6.2939,6.2942,0.8400,,4.962,29.431,,,,,,,,,,,,
CalCOFI,2007SR,027,28,2007_027u,18-Jul-2020 20:21:44,18-Jul-2020 12:21:44,33.18566,-118.38620,090.0 037.0,090.0,037.0,504.000,508.210,,6.3418,,6.3422,,6.3420,34.3027,,34.3029,34.3040,,34.3056,34.3043,0.3424,,0.3401,0.3915,2.0271,,0.8981,0.7208,0.5562,14.889,15.0545,16.5485,88.155,,32.1528,24.3507,0.0306,,,,-99.0,,-99.0,-99.0,26.9637,,26.9646,,0.6341,85.3403,,7.523,,2.2569E+03,,2.8024E-02,,6.2962,6.2966,0.8400,,4.972,29.440,,,,,,,,,,,,
CalCOFI,2007SR,027,28,2007_027u,18-Jul-2020 20:21:45,18-Jul-2020 12:21:45,33.18566,-118.38620,090.0 037.0,090.0,037.0,503.000,507.200,,6.3468,,6.3473,,6.3471,34.3021,,34.3023,34.3034,,34.3050,34.3037,0.3485,,0.3464,0.3978,2.0242,,0.8912,0.7123,0.5551,15.157,15.3343,16.8270,88.026,,31.7853,24.3062,0.0309,,,,-99.0,,-99.0,-99.0,26.9625,,26.9634,,0.6331,85.3622,,7.523,,2.2482E+03,,3.0876E-02,,6.3013,6.3018,0.8400,,5.062,29.400,,,,,,,,,,,,
CalCOFI,2007SR,027,28,2007_027u,18-Jul-2020 20:21:46,18-Jul-2020 12:21:46,33.18566,-118.38620,090.0 037.0,090.0,037.0,502.000,506.191,,6.3505,,6.3510,,6.3508,34.3015,,34.3017,34.3027,,34.3043,34.3030,0.3493,,0.3473,0.3986,2.0162,,0.8721,0.6890,0.5438,15.188,15.3667,16.8592,87.678,,30.7937,23.8265,0.0322,,,,-99.0,,-99.0,-99.0,26.9615,,26.9625,,0.6349,85.3230,,7.523,,2.2511E+03,,2.1284E-02,,6.3051,6.3055,0.8400,,5.073,29.286,,,,,,,,,,,,
CalCOFI,2007SR,027,28,2007_027u,18-Jul-2020 20:21:47,18-Jul-2020 12:21:47,33.18566,-118.38620,090.0 037.0,090.0,037.0,501.000,505.181,,6.3528,,6.3531,,6.3530,34.3013,,34.3015,34.3026,,34.3042,34.3029,0.3511,,0.3492,0.4005,2.0224,,0.8869,0.7071,0.5538,15.269,15.4512,16.9433,87.950,,31.5687,24.2560,0.0314,,,,-99.0,,-99.0,-99.0,26.9611,,26.9621,,0.6347,85.3277,,7.524,,2.2561E+03,,1.9925E-02,,6.3075,6.3077,0.8400,,5.100,29.379,,,,,,,,,,,,
CalCOFI,2007SR,027,28,2007_027u,18-Jul-2020 20:21:48,18-Jul-2020 12:21:48,33.18566,-118.38620,090.0 037.0,090.0,037.0,500.000,504.172,,6.3571,,6.3577,,6.3574,34.3007,,34.3009,34.3021,,34.3037,34.3023,0.3489,,0.3469,0.3982,2.0220,,0.8859,0.7059,0.5521,15.175,15.3531,16.8457,87.930,,31.5118,24.1788,0.0350,,,,-99.0,,-99.0,-99.0,26.9601,,26.9611,,0.6347,85.3282,,7.524,,2.2574E+03,,2.4375E-02,,6.3118,6.3124,0.8400,,5.069,29.375,,,,,,,,,,,,
CalCOFI,2007SR,027,28,2007_027u,18-Jul-2020 20:21:49,18-Jul-2020 12:21:49,33.18566,-118.38620,090.0 037.0,090.0,037.0,499.000,503.162,,6.3598,,6.3603,,6.3601,34.3005,,34.3007,34.3018,,34.3034,34.3021,0.3519,,0.3500,0.4014,2.0162,,0.8721,0.6890,0.5452,15.305,15.4888,16.9807,87.680,,30.7994,23.8901,0.0314,,,,-99.0,,-99.0,-99.0,26.9595,,26.9605,,0.6335,85.3530,,7.524,,2.2592E+03,,2.0420E-02,,6.3146,6.3151,0.8400,,5.113,29.293,,,,,,,,,,,,
CalCOFI,2007SR,027,28,2007_027u,18-Jul-2020 20:21:50,18-Jul-2020 12:21:50,33.18566,-118.38620,090.0 037.0,090.0,037.0,498.000,502.153,,6.3631,,6.3637,,6.3634,34.3003,,34.3005,34.3014,,34.3030,34.3018,0.3565,,0.3548,0.4061,2.0101,,0.8575,0.6712,0.5387,15.504,15.6965,17.1875,87.416,,30.0472,23.6174,0.0318,,,,-99.0,,-99.0,-99.0,26.9589,,26.9597,,0.6329,85.3656,,7.524,,2.2617E+03,,2.0261E-02,,6.3180,6.3186,0.8400,,5.180,29.207,,,,,,,,,,,,
CalCOFI,2007SR,027,28,2007_027u,18-Jul-2020 20:21:51,18-Jul-2020 12:21:51,33.18566,-118.38620,090.0 037.0,090.0,037.0,497.000,501.143,,6.3667,,6.3672,,6.3670,34.2999,,34.3001,34.3010,,34.3026,34.3014,0.3568,,0.3551,0.4065,2.0144,,0.8678,0.6837,0.5451,15.515,15.7080,17.1989,87.601,,30.5743,23.8866,0.0321,,,,-99.0,,-99.0,-99.0,26.9581,,26.9590,,0.6329,85.3661,,7.524,,2.2578E+03,,1.6904E-02,,6.3217,6.3222,0.8400,,5.184,29.271,,,,,,,,,,,,
CalCOFI,2007SR,027,28,2007_027u,18-Jul-2020 20:21:52,18-Jul-2020 12:21:52,33.18566,-118.38620,090.0 037.0,090.0,037.0,496.000,500.134,,6.3728,,6.3731,,6.3730,34.2993,,34.2995,34.3006,,34.3022,34.3009,0.3609,,0.3594,0.4107,2.0153,,0.8699,0.6863,0.5485,15.696,15.8970,17.3870,87.640,,30.6855,24.0363,0.0310,,,,-99.0,,-99.0,-99.0,26.9569,,26.9578,,0.6340,85.3436,,7.525,,2.2264E+03,,8.8274E-03,,6.3278,6.3282,0.8400,,5.245,29.288,,,,,,,,,,,,
CalCOFI,2007SR,027,28,2007_027u,18-Jul-2020 20:21:53,18-Jul-2020 12:21:53,33.18566,-118.38620,090.0 037.0,090.0,037.0,495.000,499.124,,6.3790,,6.3792,,6.3791,34.2985,,34.2987,34.3002,,34.3018,34.3003,0.3626,,0.3612,0.4125,2.0143,,0.8675,0.6834,0.5480,15.767,15.9711,17.4608,87.599,,30.5686,24.0147,0.0308,,,,-99.0,,-99.0,-99.0,26.9554,,26.9568,,0.6331,85.3618,,7.525,,2.2603E+03,,1.1210E-02,,6.3341,6.3343,0.8400,,5.270,29.278,,,,,,,,,,,,
CalCOFI,2007SR,027,28,2007_027u,18-Jul-2020 20:21:54,18-Jul-2020 12:21:54,33.18566,-118.38620,090.0 037.0,090.0,037.0,494.000,498.114,,6.3899,,6.3915,,6.3907,34.2979,,34.2981,34.2990,,34.3006,34.2994,0.3638,,0.3624,0.4137,2.0065,,0.8489,0.6606,0.5372,15.821,16.0274,17.5169,87.260,,29.6027,23.5598,0.0314,,,,-99.0,,-99.0,-99.0,26.9535,,26.9542,,0.6330,85.3647,,7.526,,2.2549E+03,,1.1865E-02,,6.3451,6.3467,0.8400,,5.289,29.173,,,,,,,,,,,,
CalCOFI,2007SR,027,28,2007_027u,18-Jul-2020 20:21:55,18-Jul-2020 12:21:55,33.18566,-118.38620,090.0 037.0,090.0,037.0,493.000,497.105,,6.4018,,6.4017,,6.4018,34.2957,,34.2959,34.2972,,34.2988,34.2974,0.3677,,0.3665,0.4178,2.0051,,0.8456,0.6566,0.5372,15.989,16.2028,17.6914,87.199,,29.4289,23.5602,0.0319,,,,-99.0,,-99.0,-99.0,26.9502,,26.9514,,0.6345,85.3321,,7.527,,2.2561E+03,,4.3683E-03,,6.3570,6.3570,0.8400,,5.347,29.159,,,,,,,,,,,,
CalCOFI,2007SR,027,28,2007_027u,18-Jul-2020 20:21:56,18-Jul-2020 12:21:56,33.18566,-118.38620,090.0 037.0,090.0,037.0,492.000,496.095,,6.4076,,6.4085,,6.4081,34.2950,,34.2952,34.2962,,34.2978,34.2965,0.3702,,0.3691,0.4204,2.0064,,0.8487,0.6604,0.5404,16.100,16.3187,17.8068,87.254,,29.5856,23.6962,0.0331,,,,-99.0,,-99.0,-99.0,26.9489,,26.9497,,0.6333,85.3574,,7.527,,2.2591E+03,,6.9063E-03,,6.3629,6.3638,0.8400,,5.385,29.182,,,,,,,,,,,,
CalCOFI,2007SR,027,28,2007_027u,18-Jul-2020 20:21:57,18-Jul-2020 12:21:57,33.18566,-118.38620,090.0 037.0,090.0,037.0,491.000,495.086,,6.4120,,6.4120,,6.4120,34.2944,,34.2946,34.2958,,34.2974,34.2960,0.3748,,0.3739,0.4252,2.0061,,0.8480,0.6595,0.5424,16.298,16.5254,18.0125,87.241,,29.5486,23.7806,0.0310,,,,-99.0,,-99.0,-99.0,26.9478,,26.9489,,0.6323,85.3789,,7.528,,2.2640E+03,,2.1328E-03,,6.3674,6.3674,0.8400,,5.451,29.180,,,,,,,,,,,,
CalCOFI,2007SR,027,28,2007_027u,18-Jul-2020 20:21:58,18-Jul-2020 12:21:58,33.18566,-118.38620,090.0 037.0,090.0,037.0,490.000,494.076,,6.4154,,6.4158,,6.4156,34.2943,,34.2945,34.2955,,34.2971,34.2958,0.3703,,0.3692,0.4205,1.9994,,0.8320,0.6399,0.5302,16.105,16.3239,17.8120,86.949,,28.7166,23.2643,0.0320,,,,-99.0,,-99.0,-99.0,26.9473,,26.9482,,0.6345,85.3318,,7.527,,2.2630E+03,,-1.962E-05,,6.3708,6.3712,0.8400,,5.387,29.084,,,,,,,,,,,,
CalCOFI,2007SR,027,28,2007_027u,18-Jul-2020 20:21:59,18-Jul-2020 12:21:59,33.18566,-118.38620,090.0 037.0,090.0,037.0,489.000,493.067,,6.4211,,6.4212,,6.4212,34.2935,,34.2937,34.2949,,34.2965,34.2951,0.3728,,0.3718,0.4231,1.9987,,0.8303,0.6379,0.5305,16.214,16.4377,17.9252,86.921,,28.6368,23.2810,0.0313,,,,-99.0,,-99.0,-99.0,26.9459,,26.9470,,0.6337,85.3489,,7.527,,2.2633E+03,,1.0000E-12,,6.3766,6.3767,0.8400,,5.424,29.079,,,,,,,,,,,,
CalCOFI,2007SR,027,28,2007_027u,18-Jul-2020 20:22:00,18-Jul-2020 12:22:00,33.18566,-118.38620,090.0 037.0,090.0,037.0,488.000,492.057,,6.4252,,6.4253,,6.4253,34.2930,,34.2932,34.2944,,34.2960,34.2946,0.3797,,0.3790,0.4303,1.9983,,0.8293,0.6367,0.5335,16.510,16.7467,18.2328,86.904,,28.5884,23.4106,0.0313,,,,-99.0,,-99.0,-99.0,26.9450,,26.9460,,0.6332,85.3609,,7.527,,2.2623E+03,,1.0000E-12,,6.3808,6.3809,0.8400,,5.524,29.076,,,,,,,,,,,,
CalCOFI,2007SR,027,28,2007_027u,18-Jul-2020 20:22:01,18-Jul-2020 12:22:01,33.18566,-118.38620,090.0 037.0,090.0,037.0,487.000,491.048,,6.4318,,6.4318,,6.4318,34.2924,,34.2926,34.2939,,34.2955,34.2941,0.3811,,0.3805,0.4318,2.0000,,0.8334,0.6417,0.5368,16.574,16.8135,18.2993,86.976,,28.7935,23.5464,0.0312,,,,-99.0,,-99.0,-99.0,26.9436,,26.9448,,0.6347,85.3272,,7.528,,2.2580E+03,,1.0000E-12,,6.3875,6.3875,0.8400,,5.546,29.104,,,,,,,,,,,,
CalCOFI,2007SR,027,28,2007_027u,18-Jul-2020 20:22:02,18-Jul-2020 12:22:02,33.18566,-118.38620,090.0 037.0,090.0,037.0,486.000,490.038,,6.4431,,6.4438,,6.4435,34.2912,,34.2914,34.2927,,34.2943,34.2929,0.3833,,0.3828,0.4341,1.9992,,0.8315,0.6393,0.5367,16.670,16.9137,18.3990,86.940,,28.6910,23.5450,0.0316,,,,-99.0,,-99.0,-99.0,26.9412,,26.9423,,0.6343,85.3355,,7.528,,2.2616E+03,,1.0000E-12,,6.3989,6.3995,0.8400,,5.579,29.100,,,,,,,,,,,,
CalCOFI,2007SR,027,28,2007_027u,18-Jul-2020 20:22:03,18-Jul-2020 12:22:03,33.18566,-118.38620,090.0 037.0,090.0,037.0,485.000,489.029,,6.4491,,6.4498,,6.4495,34.2905,,34.2907,34.2917,,34.2933,34.2920,0.3892,,0.3890,0.4402,1.9986,,0.8301,0.6376,0.5389,16.928,17.1830,18.6671,86.915,,28.6197,23.6434,0.0318,,,,-99.0,,-99.0,-99.0,26.9398,,26.9407,,0.6329,85.3667,,7.528,,2.2608E+03,,1.0000E-12,,6.4049,6.4056,0.8400,,5.667,29.095,,,,,,,,,,,,
CalCOFI,2007SR,027,28,2007_027u,18-Jul-2020 20:22:04,18-Jul-2020 12:22:04,33.18566,-118.38620,090.0 037.0,090.0,037.0,484.000,488.019,,6.4584,,6.4578,,6.4581,34.2893,,34.2895,34.2909,,34.2925,34.2910,0.3899,,0.3897,0.4409,1.9918,,0.8138,0.6177,0.5293,16.958,17.2144,18.6983,86.622,,27.7849,23.2416,0.0308,,,,-99.0,,-99.0,-99.0,26.9377,,26.9390,,0.6325,85.3742,,7.528,,2.2612E+03,,1.0000E-12,,6.4143,6.4137,0.8400,,5.678,29.002,,,,,,,,,,,,
CalCOFI,2007SR,027,28,2007_027u,18-Jul-2020 20:22:05,18-Jul-2020 12:22:05,33.18566,-118.38620,090.0 037.0,090.0,037.0,483.000,487.010,,6.4687,,6.4687,,6.4687,34.2881,,34.2883,34.2895,,34.2911,34.2897,0.3930,,0.3929,0.4442,1.9847,,0.7969,0.5970,0.5206,17.091,17.3532,18.8365,86.311,,26.8988,22.8677,0.0317,,,,-99.0,,-99.0,-99.0,26.9354,,26.9365,,0.6331,85.3621,,7.528,,2.2608E+03,,1.0000E-12,,6.4246,6.4246,0.8400,,5.723,28.905,,,,,,,,,,,,
CalCOFI,2007SR,027,28,2007_027u,18-Jul-2020 20:22:06,18-Jul-2020 12:22:06,33.18566,-118.38620,090.0 037.0,090.0,037.0,482.000,486.000,,6.4745,,6.4749,,6.4747,34.2871,,34.2873,34.2884,,34.2900,34.2887,0.3948,,0.3948,0.4460,1.9911,,0.8122,0.6157,0.5309,17.169,17.4346,18.9175,86.590,,27.6937,23.3056,0.0312,,,,-99.0,,-99.0,-99.0,26.9338,,26.9347,,0.6333,85.3569,,7.528,,2.2604E+03,,1.0000E-12,,6.4305,6.4309,0.8400,,5.750,29.002,,,,,,,,,,,,
CalCOFI,2007SR,027,28,2007_027u,18-Jul-2020 20:22:07,18-Jul-2020 12:22:07,33.18566,-118.38620,090.0 037.0,090.0,037.0,481.000,484.991,,6.4813,,6.4814,,6.4814,34.2865,,34.2867,34.2878,,34.2894,34.2881,0.3966,,0.3967,0.4479,1.9906,,0.8110,0.6142,0.5311,17.246,17.5150,18.9975,86.568,,27.6310,23.3143,0.0328,,,,-99.0,,-99.0,-99.0,26.9324,,26.9335,,0.6331,85.3620,,7.528,,2.2604E+03,,1.0000E-12,,6.4374,6.4375,0.8400,,5.777,28.999,,,,,,,,,,,,
CalCOFI,2007SR,027,28,2007_027u,18-Jul-2020 20:22:08,18-Jul-2020 12:22:08,33.18566,-118.38620,090.0 037.0,090.0,037.0,480.000,483.981,,6.4902,,6.4902,,6.4902,34.2856,,34.2858,34.2868,,34.2884,34.2871,0.4026,,0.4030,0.4542,1.9899,,0.8093,0.6122,0.5332,17.509,17.7895,19.2708,86.537,,27.5427,23.4068,0.0314,,,,-99.0,,-99.0,-99.0,26.9305,,26.9315,,0.6331,85.3620,,7.528,,2.2616E+03,,1.0000E-12,,6.4463,6.4464,0.8400,,5.866,28.995,,,,,,,,,,,,
CalCOFI,2007SR,027,28,2007_027u,18-Jul-2020 20:22:09,18-Jul-2020 12:22:09,33.18566,-118.38620,090.0 037.0,090.0,037.0,479.000,482.972,,6.4949,,6.4951,,6.4950,34.2848,,34.2850,34.2860,,34.2876,34.2863,0.3998,,0.4001,0.4513,1.9888,,0.8067,0.6090,0.5302,17.387,17.6622,19.1440,86.490,,27.4088,23.2764,0.0316,,,,-99.0,,-99.0,-99.0,26.9293,,26.9302,,0.6331,85.3629,,7.528,,2.2607E+03,,1.0000E-12,,6.4511,6.4513,0.8400,,5.826,28.982,,,,,,,,,,,,
CalCOFI,2007SR,027,28,2007_027u,18-Jul-2020 20:22:10,18-Jul-2020 12:22:10,33.18566,-118.38620,090.0 037.0,090.0,037.0,478.000,481.962,,6.4985,,6.4985,,6.4985,34.2839,,34.2841,34.2852,,34.2868,34.2855,0.4000,,0.4003,0.4515,1.9843,,0.7959,0.5958,0.5237,17.395,17.6705,19.1523,86.294,,26.8503,23.0013,0.0312,,,,-99.0,,-99.0,-99.0,26.9280,,26.9291,,0.6354,85.3126,,7.528,,2.2626E+03,,1.0000E-12,,6.4548,6.4548,0.8400,,5.829,28.918,,,,,,,,,,,,
CalCOFI,2007SR,027,28,2007_027u,18-Jul-2020 20:22:11,18-Jul-2020 12:22:11,33.18566,-118.38620,090.0 037.0,090.0,037.0,477.000,480.953,,6.4995,,6.4999,,6.4997,34.2837,,34.2839,34.2849,,34.2865,34.2852,0.4014,,0.4017,0.4529,1.9887,,0.8064,0.6087,0.5308,17.459,17.7374,19.2188,86.487,,27.4002,23.3095,0.0311,,,,-99.0,,-99.0,-99.0,26.9278,,26.9287,,0.6332,85.3594,,7.528,,2.2608E+03,,1.0000E-12,,6.4559,6.4562,0.8400,,5.851,28.984,,,,,,,,,,,,
CalCOFI,2007SR,027,28,2007_027u,18-Jul-2020 20:22:12,18-Jul-2020 12:22:12,33.18566,-118.38620,090.0 037.0,090.0,037.0,476.000,479.944,,6.5001,,6.5004,,6.5003,34.2836,,34.2838,34.2847,,34.2863,34.2851,0.4018,,0.4021,0.4533,1.9816,,0.7895,0.5879,0.5206,17.472,17.7509,19.2323,86.175,,26.5113,22.8718,0.0326,,,,-99.0,,-99.0,-99.0,26.9276,,26.9284,,0.6325,85.3740,,7.528,,2.2623E+03,,1.0000E-12,,6.4566,6.4569,0.8400,,5.855,28.880,,,,,,,,,,,,
CalCOFI,2007SR,027,28,2007_027u,18-Jul-2020 20:22:13,18-Jul-2020 12:22:13,33.18566,-118.38620,090.0 037.0,090.0,037.0,475.000,478.934,,6.5006,,6.5009,,6.5008,34.2834,,34.2836,34.2847,,34.2863,34.2850,0.4027,,0.4031,0.4543,1.9844,,0.7962,0.5961,0.5252,17.513,17.7937,19.2749,86.300,,26.8674,23.0712,0.0323,,,,-99.0,,-99.0,-99.0,26.9274,,26.9283,,0.6320,85.3845,,7.528,,2.2622E+03,,1.0000E-12,,6.4571,6.4575,0.8400,,5.869,28.922,,,,,,,,,,,,
CalCOFI,2007SR,027,28,2007_027u,18-Jul-2020 20:22:14,18-Jul-2020 12:22:14,33.18566,-118.38620,090.0 037.0,090.0,037.0,474.000,477.925,,6.5021,,6.5026,,6.5024,34.2834,,34.2836,34.2846,,34.2862,34.2849,0.4092,,0.4099,0.4610,1.9832,,0.7933,0.5926,0.5268,17.796,18.0891,19.5690,86.245,,26.7107,23.1399,0.0320,,,,-99.0,,-99.0,-99.0,26.9272,,26.9281,,0.6343,85.3366,,7.528,,2.2604E+03,,1.0000E-12,,6.4587,6.4592,0.8400,,5.964,28.904,,,,,,,,,,,,
CalCOFI,2007SR,027,28,2007_027u,18-Jul-2020 20:22:15,18-Jul-2020 12:22:15,33.18566,-118.38620,090.0 037.0,090.0,037.0,473.000,476.915,,6.5013,,6.5015,,6.5014,34.2820,,34.2822,34.2829,,34.2845,34.2834,0.4105,,0.4112,0.4624,1.9805,,0.7868,0.5847,0.5236,17.853,18.1486,19.6282,86.129,,26.3802,23.0042,0.0313,,,,-99.0,,-99.0,-99.0,26.9262,,26.9268,,0.6325,85.3753,,7.528,,2.2604E+03,,1.0000E-12,,6.4580,6.4583,0.8400,,5.983,28.864,,,,,,,,,,,,
CalCOFI,2007SR,027,28,2007_027u,18-Jul-2020 20:22:16,18-Jul-2020 12:22:16,33.18566,-118.38620,090.0 037.0,090.0,037.0,472.000,475.906,,6.4993,,6.4998,,6.4996,34.2798,,34.2800,34.2810,,34.2826,34.2813,0.4147,,0.4156,0.4668,1.9821,,0.7907,0.5894,0.5281,18.034,18.3376,19.8163,86.201,,26.5853,23.2008,0.0306,,,,-99.0,,-99.0,-99.0,26.9247,,26.9256,,0.6327,85.3695,,7.528,,2.2544E+03,,1.0000E-12,,6.4562,6.4567,0.8400,,6.043,28.887,,,,,,,,,,,,
CalCOFI,2007SR,027,28,2007_027u,18-Jul-2020 20:22:18,18-Jul-2020 12:22:18,33.18566,-118.38620,090.0 037.0,090.0,037.0,471.000,474.896,,6.5016,,6.5018,,6.5017,34.2794,,34.2796,34.2807,,34.2823,34.2810,0.4170,,0.4180,0.4692,1.9821,,0.7907,0.5894,0.5293,18.136,18.4441,19.9223,86.199,,26.5796,23.2510,0.0312,,,,-99.0,,-99.0,-99.0,26.9240,,26.9250,,0.6333,85.3580,,7.529,,2.2622E+03,,1.0000E-12,,6.4586,6.4588,0.8400,,6.078,28.888,,,,,,,,,,,,
CalCOFI,2007SR,027,28,2007_027u,18-Jul-2020 20:22:18,18-Jul-2020 12:22:18,33.18566,-118.38620,090.0 037.0,090.0,037.0,470.000,473.887,,6.5100,,6.5102,,6.5101,34.2790,,34.2792,34.2806,,34.2822,34.2807,0.4202,,0.4214,0.4725,1.9814,,0.7890,0.5873,0.5299,18.272,18.5860,20.0636,86.169,,26.4942,23.2789,0.0316,,,,-99.0,,-99.0,-99.0,26.9226,,26.9238,,0.6327,85.3712,,7.528,,2.2623E+03,,1.0000E-12,,6.4670,6.4672,0.8400,,6.125,28.883,,,,,,,,,,,,
CalCOFI,2007SR,027,28,2007_027u,18-Jul-2020 20:22:19,18-Jul-2020 12:22:19,33.18566,-118.38620,090.0 037.0,090.0,037.0,469.000,472.878,,6.5263,,6.5267,,6.5265,34.2783,,34.2785,34.2795,,34.2811,34.2798,0.4227,,0.4240,0.4751,1.9803,,0.7864,0.5841,0.5296,18.384,18.7030,20.1799,86.122,,26.3602,23.2701,0.0316,,,,-99.0,,-99.0,-99.0,26.9199,,26.9208,,0.6329,85.3671,,7.529,,2.2613E+03,,1.0000E-12,,6.4833,6.4837,0.8400,,6.164,28.878,,,,,,,,,,,,
CalCOFI,2007SR,027,28,2007_027u,18-Jul-2020 20:22:20,18-Jul-2020 12:22:20,33.18566,-118.38620,090.0 037.0,090.0,037.0,468.000,471.868,,6.5329,,6.5337,,6.5333,34.2779,,34.2781,34.2794,,34.2810,34.2796,0.4224,,0.4237,0.4748,1.9786,,0.7823,0.5792,0.5270,18.372,18.6904,20.1675,86.046,,26.1437,23.1556,0.0316,,,,-99.0,,-99.0,-99.0,26.9187,,26.9198,,0.6337,85.3481,,7.530,,2.2594E+03,,1.0000E-12,,6.4900,6.4908,0.8400,,6.161,28.857,,,,,,,,,,,,
CalCOFI,2007SR,027,28,2007_027u,18-Jul-2020 20:22:21,18-Jul-2020 12:22:21,33.18566,-118.38620,090.0 037.0,090.0,037.0,467.000,470.859,,6.5443,,6.5450,,6.5447,34.2785,,34.2787,34.2800,,34.2816,34.2802,0.4258,,0.4272,0.4783,1.9744,,0.7723,0.5669,0.5226,18.516,18.8408,20.3171,85.864,,25.6251,22.9711,0.0310,,,,-99.0,,-99.0,-99.0,26.9177,,26.9187,,0.6325,85.3741,,7.530,,2.2623E+03,,1.0000E-12,,6.5015,6.5021,0.8400,,6.211,28.804,,,,,,,,,,,,
CalCOFI,2007SR,027,28,2007_027u,18-Jul-2020 20:22:22,18-Jul-2020 12:22:22,33.18566,-118.38620,090.0 037.0,090.0,037.0,466.000,469.849,,6.5556,,6.5558,,6.5557,34.2779,,34.2781,34.2792,,34.2808,34.2795,0.4273,,0.4288,0.4799,1.9724,,0.7675,0.5611,0.5205,18.584,18.9117,20.3877,85.780,,25.3858,22.8868,0.0316,,,,-99.0,,-99.0,-99.0,26.9157,,26.9167,,0.6340,85.3434,,7.531,,2.2623E+03,,1.0000E-12,,6.5128,6.5130,0.8400,,6.236,28.783,,,,,,,,,,,,
CalCOFI,2007SR,027,28,2007_027u,18-Jul-2020 20:22:23,18-Jul-2020 12:22:23,33.18566,-118.38620,090.0 037.0,090.0,037.0,465.000,468.840,,6.5595,,6.5595,,6.5595,34.2775,,34.2777,34.2788,,34.2804,34.2791,0.4264,,0.4278,0.4790,1.9736,,0.7704,0.5646,0.5218,18.544,18.8700,20.3462,85.830,,25.5282,22.9372,0.0320,,,,-99.0,,-99.0,-99.0,26.9149,,26.9159,,0.6330,85.3651,,7.532,,2.2623E+03,,1.0000E-12,,6.5168,6.5168,0.8400,,6.223,28.802,,,,,,,,,,,,
CalCOFI,2007SR,027,28,2007_027u,18-Jul-2020 20:22:24,18-Jul-2020 12:22:24,33.18566,-118.38620,090.0 037.0,090.0,037.0,464.000,467.830,,6.5683,,6.5680,,6.5682,34.2774,,34.2776,34.2788,,34.2804,34.2790,0.4290,,0.4306,0.4817,1.9764,,0.7771,0.5727,0.5272,18.655,18.9859,20.4615,85.951,,25.8730,23.1673,0.0320,,,,-99.0,,-99.0,-99.0,26.9136,,26.9147,,0.6341,85.3404,,7.532,,2.2623E+03,,1.0000E-12,,6.5257,6.5254,0.8400,,6.261,28.848,,,,,,,,,,,,
CalCOFI,2007SR,027,28,2007_027u,18-Jul-2020 20:22:25,18-Jul-2020 12:22:25,33.18566,-118.38620,090.0 037.0,090.0,037.0,463.000,466.821,,6.5850,,6.5865,,6.5858,34.2769,,34.2771,34.2785,,34.2801,34.2786,0.4341,,0.4359,0.4870,1.9677,,0.7563,0.5473,0.5172,18.878,19.2186,20.6932,85.574,,24.7988,22.7460,0.0320,,,,-99.0,,-99.0,-99.0,26.9110,,26.9121,,0.6329,85.3666,,7.532,,2.2623E+03,,1.0000E-12,,6.5424,6.5439,0.8400,,6.338,28.734,,,,,,,,,,,,